GW5794 Weather Reports


time (UTC)temp
F
wind
direction
speed
knots
gust
knots
rain 1hr
in
rain 24hr
in
rain mn
in
humidity
%
barometer
mb
20260906231537 61 269 2.6 7.0 0.00 0.00 0.00 79 1017.8
20260906231019 61 248 3.5 7.0 0.00 0.00 0.00 78 1017.8
20260906230517 61 218 0.9 4.3 0.00 0.00 0.00 79 1017.9
20260906230037 61 232 1.7 5.2 0.00 0.00 0.00 79 1017.8
20260906225520 60 0 1.7 5.2 0.00 0.00 0.00 80 1017.9
20260906225020 60 0 1.7 7.0 0.00 0.00 0.00 81 1018.0
20260906224541 60 226 4.3 7.0 0.00 0.00 0.00 82 1018.0
20260906224020 59 269 2.6 7.0 0.00 0.00 0.00 81 1018.0
20260906223520 60 259 2.6 6.1 0.00 0.00 0.00 82 1017.9
20260906223044 59 249 0.9 4.3 0.00 0.00 0.00 83 1018.0
20260906222518 59 159 1.7 6.1 0.00 0.00 0.00 83 1018.1
20260906222016 58 240 2.6 7.0 0.00 0.00 0.00 84 1018.1
20260906221541 58 261 2.6 7.0 0.00 0.00 0.00 85 1018.2
20260906221020 58 245 2.6 6.1 0.00 0.00 0.00 84 1018.2
20260906220520 58 243 3.5 6.1 0.00 0.00 0.00 85 1018.2
20260906220038 58 260 1.7 5.2 0.00 0.00 0.00 85 1018.3
20260906215521 58 281 1.7 5.2 0.00 0.00 0.00 86 1018.2
20260906215020 57 250 1.7 6.1 0.00 0.00 0.00 87 1018.2
20260906214537 57 238 1.7 6.1 0.00 0.00 0.00 87 1018.2
20260906214019 57 242 4.3 7.0 0.00 0.00 0.00 87 1018.2
20260906213517 57 248 3.5 7.0 0.00 0.00 0.00 88 1018.2
20260906213039 56 255 3.5 7.8 0.00 0.00 0.00 88 1018.2
20260906212516 56 281 4.3 7.8 0.00 0.00 0.00 88 1018.3
20260906212019 56 262 4.3 7.0 0.00 0.00 0.00 89 1018.3
20260906211537 56 301 4.3 6.1 0.00 0.00 0.00 88 1018.3
20260906211018 56 262 4.3 7.0 0.00 0.00 0.00 88 1018.3
20260906210519 56 254 2.6 7.0 0.00 0.00 0.00 88 1018.4
20260906205520 56 269 5.2 7.8 0.00 0.00 0.00 88 1018.5
20260906205020 56 254 4.3 7.0 0.00 0.00 0.00 88 1018.4
20260906204019 56 325 2.6 6.1 0.00 0.00 0.00 88 1018.3
20260906203519 56 229 2.6 7.0 0.00 0.00 0.00 88 1018.3
20260906202520 56 305 3.5 7.8 0.00 0.00 0.00 88 1018.3
20260906202022 56 274 3.5 7.0 0.00 0.00 0.00 88 1018.3
20260906201019 56 268 1.7 7.0 0.00 0.00 0.00 88 1018.4
20260906200518 56 278 1.7 7.0 0.00 0.00 0.00 87 1018.4
20260906195519 56 278 2.6 6.1 0.00 0.00 0.00 86 1018.5
20260906195016 57 326 2.6 6.1 0.00 0.00 0.00 86 1018.5
20260906194019 58 289 0.9 3.5 0.00 0.00 0.00 84 1018.5
20260906193518 58 298 0.0 2.6 0.00 0.00 0.00 84 1018.6
20260906192520 58 0 0.0 1.7 0.00 0.00 0.00 84 1018.7
20260906192020 58 0 0.0 1.7 0.00 0.00 0.00 83 1018.7
20260906191020 58 0 0.0 0.0 0.00 0.00 0.00 83 1018.7
20260906190520 58 0 0.0 1.7 0.00 0.00 0.00 84 1018.7
20260906185516 57 0 0.0 2.6 0.00 0.00 0.00 85 1018.7
20260906185017 57 0 0.9 2.6 0.00 0.00 0.00 85 1018.7
20260906183518 57 38 0.9 3.5 0.00 0.00 0.00 85 1018.6
20260906182519 57 29 1.7 3.5 0.00 0.00 0.00 85 1018.7
20260906182020 57 36 0.9 2.6 0.00 0.00 0.00 85 1018.8
20260906181020 57 40 1.7 3.5 0.00 0.00 0.00 86 1018.7
20260906180519 56 49 0.0 1.7 0.00 0.00 0.00 87 1018.8
20260906175520 56 49 1.7 2.6 0.00 0.00 0.00 87 1018.8
20260906175017 56 49 0.0 1.7 0.00 0.00 0.00 88 1018.9
20260906174017 55 0 0.0 3.5 0.00 0.00 0.00 89 1019.1
20260906173516 55 49 0.9 3.5 0.00 0.00 0.00 89 1019.1
20260906172020 54 338 0.9 4.3 0.00 0.00 0.00 90 1019.2
20260906171021 54 351 3.5 5.2 0.00 0.00 0.00 90 1019.2
20260906170519 54 351 2.6 4.3 0.00 0.00 0.00 90 1019.2
20260906165522 54 352 1.7 4.3 0.00 0.00 0.00 90 1019.1
20260906165020 54 342 2.6 4.3 0.00 0.00 0.00 90 1019.1
20260906164016 54 9 1.7 3.5 0.00 0.00 0.00 91 1019.2
20260906163516 54 342 1.7 3.5 0.00 0.00 0.00 91 1019.2
20260906162018 54 0 0.0 1.7 0.00 0.00 0.00 91 1019.2
20260906161019 54 0 0.0 1.7 0.00 0.00 0.00 91 1019.1
20260906160520 54 0 0.0 0.0 0.00 0.00 0.00 91 1019.0
20260906155518 54 0 0.0 0.0 0.00 0.00 0.00 91 1019.1
20260906155019 54 0 0.0 0.0 0.00 0.00 0.00 91 1018.9
20260906153518 54 0 0.0 0.0 0.00 0.00 0.00 91 1018.9
20260906152519 54 0 0.0 1.7 0.00 0.00 0.00 91 1018.7
20260906152019 54 0 0.0 4.3 0.00 0.00 0.00 91 1018.8
20260906151020 54 164 2.6 5.2 0.00 0.00 0.00 91 1018.7
20260906150519 53 189 0.9 5.2 0.00 0.00 0.00 91 1018.7
20260906145518 53 177 3.5 6.1 0.00 0.00 0.00 91 1018.6
20260906145019 53 184 2.6 4.3 0.00 0.00 0.00 91 1018.6
20260906144015 53 219 2.6 6.1 0.00 0.00 0.00 91 1018.8
20260906142519 54 233 0.9 2.6 0.00 0.00 0.00 90 1018.8
20260906142020 54 232 0.9 2.6 0.00 0.00 0.00 90 1018.6
20260906141020 54 233 0.9 5.2 0.00 0.00 0.00 90 1018.5
20260906140518 54 64 1.7 6.1 0.00 0.00 0.00 90 1018.4
20260906135519 54 80 1.7 6.1 0.00 0.00 0.00 90 1018.4
20260906135019 54 66 3.5 6.1 0.00 0.00 0.00 90 1018.4
20260906134533 54 0 0.9 7.0 0.00 0.00 0.00 90 1018.4
20260906134020 54 109 0.9 7.0 0.00 0.00 0.00 90 1018.4
20260906133519 54 85 3.5 7.0 0.00 0.00 0.00 90 1018.5
20260906132518 54 40 2.6 5.2 0.00 0.00 0.00 90 1018.4
20260906132020 54 64 1.7 7.0 0.00 0.00 0.00 90 1018.2
20260906131019 54 45 3.5 7.0 0.00 0.00 0.00 90 1018.3
20260906130518 54 94 3.5 7.8 0.00 0.00 0.00 91 1018.3
20260906125519 54 36 3.5 7.8 0.00 0.00 0.00 91 1018.3
20260906125018 54 42 2.6 7.8 0.00 0.00 0.00 91 1018.4
20260906124021 54 38 2.6 7.8 0.00 0.00 0.00 92 1018.3
20260906123521 54 44 3.5 7.8 0.00 0.00 0.00 92 1018.4
20260906122517 54 58 4.3 8.7 0.00 0.00 0.00 92 1018.3
20260906122018 54 98 4.3 8.7 0.00 0.00 0.00 92 1018.3
20260906120522 54 38 4.3 9.6 0.00 0.00 0.00 92 1018.1
20260906115520 54 9 4.3 7.0 0.00 0.00 0.00 92 1017.9
20260906115018 54 350 1.7 4.3 0.00 0.00 0.00 92 1017.9
20260906114015 53 0 0.0 0.9 0.00 0.00 0.00 92 1017.9
20260906113518 53 0 0.0 4.3 0.00 0.00 0.00 92 1017.9
20260906112018 54 168 4.3 7.0 0.00 0.00 0.00 91 1017.8
20260906111020 54 65 2.6 7.8 0.00 0.00 0.00 91 1017.8
20260906110520 54 57 3.5 5.2 0.00 0.00 0.00 91 1017.7
20260906105524 55 348 0.0 3.5 0.00 0.00 0.00 91 1017.7
20260906105016 55 0 0.0 5.2 0.00 0.00 0.00 91 1017.6
20260906104538 55 10 1.7 5.2 0.00 0.00 0.00 91 1017.6
20260906104018 55 0 0.0 2.6 0.00 0.00 0.00 91 1017.6
20260906103515 56 0 0.0 2.6 0.00 0.00 0.00 91 1017.6
20260906102526 55 0 0.0 0.0 0.00 0.00 0.00 91 1017.6
20260906101019 54 153 0.0 2.6 0.00 0.00 0.00 90 1017.6
20260906100521 54 153 0.9 1.7 0.00 0.00 0.00 90 1017.6
20260906095525 54 0 0.9 2.6 0.00 0.00 0.00 90 1017.7
20260906095020 54 0 0.0 0.0 0.00 0.00 0.00 89 1017.7
20260906094021 54 0 0.0 0.0 0.00 0.00 0.00 88 1017.7
20260906092517 55 0 0.0 0.0 0.00 0.00 0.00 87 1017.4
20260906092019 55 0 0.0 0.0 0.00 0.00 0.00 87 1017.3
20260906091020 55 0 0.0 1.7 0.00 0.00 0.00 87 1017.3
20260906090521 55 0 0.0 1.7 0.00 0.00 0.00 87 1017.3
20260906085021 56 0 0.0 0.0 0.00 0.00 0.00 87 1017.3
20260906084022 56 0 0.0 0.0 0.00 0.00 0.00 87 1017.3
20260906083520 56 0 0.0 0.0 0.00 0.00 0.00 86 1017.3
20260906082519 56 0 0.0 0.0 0.00 0.00 0.00 86 1017.2
20260906082019 56 0 0.0 0.0 0.00 0.00 0.00 86 1017.2
20260906081018 56 0 0.0 0.0 0.00 0.00 0.00 85 1017.2
20260906080518 56 0 0.0 1.7 0.00 0.00 0.00 84 1017.2
20260906080037 56 0 0.0 2.6 0.00 0.00 0.00 83 1017.2
20260906075520 56 257 1.7 2.6 0.00 0.00 0.00 83 1017.2
20260906075020 56 0 0.0 1.7 0.00 0.00 0.00 84 1017.1
20260906074020 55 0 0.0 0.0 0.00 0.00 0.00 84 1017.0
20260906073520 56 0 0.0 0.0 0.00 0.00 0.00 84 1017.0
20260906072519 56 0 0.0 1.7 0.00 0.00 0.00 84 1017.0
20260906072015 56 0 0.0 1.7 0.00 0.00 0.00 82 1017.0
20260906071017 57 0 0.0 0.0 0.00 0.00 0.00 81 1017.1
20260906070516 57 0 0.0 0.0 0.00 0.00 0.00 81 1017.1
20260906065522 57 0 0.0 0.0 0.00 0.00 0.00 82 1017.1
20260906065019 57 0 0.0 0.0 0.00 0.00 0.00 83 1017.1
20260906064021 57 0 0.0 0.0 0.00 0.00 0.00 83 1017.0
20260906063520 57 0 0.0 0.0 0.00 0.00 0.00 83 1017.0
20260906063034 57 0 0.0 0.0 0.00 0.00 0.00 83 1017.1
20260906062515 57 0 0.0 0.0 0.00 0.00 0.00 83 1017.1
20260906062016 57 0 0.0 1.7 0.00 0.00 0.00 83 1017.1
20260906061019 57 198 0.9 2.6 0.00 0.00 0.00 84 1017.1
20260906060520 57 175 1.7 2.6 0.00 0.00 0.00 84 1017.0
20260906055520 58 0 0.0 3.5 0.00 0.00 0.00 83 1016.9
20260906055018 58 0 0.0 3.5 0.00 0.00 0.00 83 1017.0
20260906054016 58 20 1.7 2.6 0.00 0.00 0.00 82 1017.0
20260906053517 58 0 0.0 3.5 0.00 0.00 0.00 79 1017.0
20260906051020 59 0 0.0 2.6 0.00 0.00 0.00 79 1016.6
20260906050517 59 0 0.9 2.6 0.00 0.00 0.00 78 1016.6
20260906045520 59 0 0.0 0.0 0.00 0.00 0.00 78 1016.5
20260906045017 59 0 0.0 0.0 0.00 0.00 0.00 78 1016.5
20260906044021 60 0 0.0 0.0 0.00 0.00 0.00 78 1016.5
20260906043516 60 0 0.0 0.0 0.00 0.00 0.00 77 1016.5
20260906042520 60 0 0.0 0.0 0.00 0.00 0.00 77 1016.6
20260906042021 59 0 0.0 0.0 0.00 0.00 0.00 77 1016.7
20260906041023 59 0 0.0 0.0 0.00 0.00 0.00 77 1016.8
20260906040519 59 0 0.0 1.7 0.00 0.00 0.00 77 1016.8
20260906035518 60 0 0.0 1.7 0.00 0.00 0.00 78 1016.9
20260906035020 60 0 0.0 1.7 0.00 0.00 0.00 78 1016.9
20260906034018 60 137 1.7 2.6 0.00 0.00 0.00 76 1016.9
20260906033519 61 137 0.0 2.6 0.00 0.00 0.00 75 1016.9
20260906032520 62 0 0.0 0.0 0.00 0.00 0.00 74 1016.9
20260906032020 62 0 0.0 0.0 0.00 0.00 0.00 73 1016.8
20260906031017 62 0 0.0 0.0 0.00 0.00 0.00 72 1016.8
20260906030517 62 0 0.0 0.0 0.00 0.00 0.00 73 1016.8
20260906030037 62 0 0.0 0.0 0.00 0.00 0.00 72 1016.7
20260906025516 62 0 0.0 0.0 0.00 0.00 0.00 72 1016.7
20260906024024 63 0 0.0 0.0 0.00 0.00 0.00 72 1016.7
20260906023518 63 0 0.0 0.0 0.00 0.00 0.00 72 1016.7
20260906022520 64 0 0.0 1.7 0.00 0.00 0.00 70 1016.7
20260906022020 65 0 0.0 1.7 0.00 0.00 0.00 68 1016.6
20260906021537 67 137 0.0 1.7 0.00 0.00 0.00 66 1016.6
20260906021020 68 0 0.0 2.6 0.00 0.00 0.00 65 1016.6
20260906020517 69 218 0.0 3.5 0.00 0.00 0.00 59 1016.6
20260906020039 69 216 0.9 3.5 0.00 0.00 0.00 59 1016.6
20260906014020 69 0 0.9 4.3 0.00 0.00 0.00 58 1016.6
20260906013520 68 227 1.7 4.3 0.00 0.00 0.00 57 1016.5
20260906013036 69 219 2.6 6.1 0.00 0.00 0.00 57 1016.6
20260906012520 69 250 1.7 6.1 0.00 0.00 0.00 57 1016.6
20260906010518 70 223 2.6 5.2 0.00 0.00 0.00 58 1016.5
20260906005520 71 248 1.7 5.2 0.00 0.00 0.00 58 1016.5
20260906005017 71 0 3.5 5.2 0.00 0.00 0.00 57 1016.4
20260906004538 71 0 0.0 4.3 0.00 0.00 0.00 59 1016.5
20260906004024 71 0 0.0 4.3 0.00 0.00 0.00 59 1016.5
20260906003519 72 206 1.7 4.3 0.00 0.00 0.00 57 1016.4
20260906003037 71 241 0.9 3.5 0.00 0.00 0.00 58 1016.5
20260906002019 69 225 0.0 1.7 0.00 0.00 0.00 63 1016.5
20260906001018 70 121 0.9 6.1 0.00 0.00 0.00 60 1016.4
20260906000518 71 160 1.7 4.3 0.00 0.00 0.00 59 1016.5
20260905235520 70 0 0.0 0.0 0.00 0.00 0.00 56 1016.6
20260905235021 69 0 0.0 0.0 0.00 0.00 0.00 60 1016.6
20260905234019 69 0 0.0 0.0 0.00 0.00 0.00 55 1016.5
20260905233519 69 0 0.0 0.0 0.00 0.00 0.00 56 1016.6
20260905232522 68 0 0.0 1.7 0.00 0.00 0.00 60 1016.7